Retour au catalogue

COSMOS 2150

ActifNavigationLEO
NORAD 21418·PAYLOAD·🇷🇺 Russia

Lancé Jun 11, 1991 depuis Plesetsk Cosmodrome

Loading…

Prochains Passages (prochaines 24 heures)

TLE

FraisSource: Space-Track

Époque: Sep 14, 2026, 13:38 UTC

1 21418U 91041A   26257.56837484  .00000073  00000-0  36370-4 0  9991
2 21418  74.0367 309.2105 0015826  74.9581 285.3320 14.32666345841782

Suivez COSMOS 2150 en temps réel avec AllMySat

Download on the App Store